Wind_Speed
4 5 6 6 6 7 7 8 10 11 12 12 12 13 13 12 12 11 11 10 10 9 9 8 8 8 7 7 7 7 6 6 6 5 5 5 6 6 6 6 6 6 6
4 5 6 6 6 7 7 8 9 10 11 11 11 12 12 11 11 11 10 10 9 9 8 8 7 7 7 7 7 7 6 6 6 6 6 6 6 6 6 6 6 6 6
5 6 6 7 7 7 7 8 9 10 10 10 11 10 10 10 10 10 9 9 8 8 8 7 7 7 6 6 7 7 6 6 6 6 6 6 6 6 6 6 6 6 6
5 6 7 7 7 8 8 9 9 9 9 10 10 9 9 9 9 9 8 8 7 7 7 7 7 6 6 6 6 6 6 6 6 6 6 6 6 6 5 5 5 5 5
6 7 8 8 8 9 9 9 9 9 9 9 9 9 9 8 8 8 7 7 6 6 6 6 6 6 5 5 6 6 6 6 6 6 6 5 5 5 5 5 5 5 5
6 7 8 9 9 10 10 10 10 10 10 9 9 8 8 8 7 7 7 6 6 5 5 5 5 5 5 5 5 5 5 5 5 5 5 5 5 4 4 4 4 4 4
7 8 9 10 11 11 12 12 11 10 10 9 9 8 8 7 7 6 6 5 5 5 4 4 4 4 4 5 5 4 4 4 4 4 5 5 4 4 4 4 3 4 3
8 9 10 11 12 13 13 13 12 11 10 10 9 8 8 7 6 6 5 5 4 4 4 4 3 4 4 5 4 4 4 4 4 4 4 4 4 4 3 3 3 3 3
8 11 12 12 12 14 14 14 13 12 11 10 9 9 8 7 6 5 5 4 4 4 3 3 3 3 4 5 4 4 4 4 3 3 3 4 4 4 4 4 4 3 3
9 11 13 13 14 14 15 15 14 12 12 11 10 9 8 7 6 5 5 4 4 3 3 3 3 3 4 5 4 4 4 4 3 3 4 4 4 4 4 4 4 4 3
9 11 13 13 15 16 16 16 15 14 13 12 11 10 8 7 6 6 5 4 4 4 4 4 4 4 4 5 5 5 5 4 4 4 4 4 4 4 4 5 4 4 4
10 12 13 14 17 17 17 17 17 15 14 12 11 10 9 8 7 7 6 5 4 4 4 4 5 5 5 5 5 5 5 5 4 4 4 4 5 5 5 5 5 5 5
11 12 13 15 18 19 19 18 18 17 15 14 12 11 9 8 8 7 6 6 4 4 4 5 5 5 5 5 5 5 5 5 5 5 5 5 6 6 6 6 6 6 6
12 13 14 15 18 19 19 19 19 18 17 16 14 12 10 9 8 7 7 6 5 5 4 5 5 5 5 5 5 6 6 6 6 6 6 6 6 6 7 7 7 7 6
13 14 14 15 18 19 19 19 20 20 18 17 15 13 11 10 9 8 8 7 6 6 5 5 5 5 6 6 5 5 6 6 6 7 7 7 7 7 8 8 8 8 8
13 14 15 16 17 19 20 20 21 21 20 17 16 14 12 10 9 9 9 8 8 7 6 6 6 6 6 6 6 5 6 6 6 7 7 7 7 7 8 7 8 8 8
13 15 16 17 18 19 20 21 21 22 21 19 17 15 14 12 10 10 8 8 8 7 7 6 6 6 6 5 5 5 5 6 7 7 7 7 7 7 8 8 8 8 7
13 15 16 17 19 20 21 22 22 22 21 19 17 16 15 13 11 10 9 8 8 7 6 6 6 6 6 5 5 5 5 6 6 7 7 7 7 7 7 8 8 8 7
14 15 16 17 20 21 21 22 23 22 21 19 18 16 15 13 12 10 10 9 8 7 7 6 6 5 5 5 5 5 5 5 6 6 6 7 7 7 7 7 7 8 8
14 16 16 18 20 20 21 22 23 22 21 20 18 16 15 14 13 11 10 10 9 8 7 6 6 6 5 4 4 3 4 4 4 5 6 6 6 7 7 7 8 8 8
14 15 16 18 19 19 19 21 22 22 21 20 19 17 16 15 13 12 11 11 10 9 8 7 7 6 5 4 4 3 3 3 3 4 4 5 5 5 6 7 7 8 8
14 15 16 17 19 19 19 20 22 21 20 19 19 18 17 15 14 13 12 12 11 10 8 8 7 6 5 4 3 3 2 2 2 3 3 4 5 5 5 6 6 6 7
12 14 15 16 18 19 20 20 22 21 19 19 18 18 17 16 15 14 13 13 12 10 9 9 8 7 6 5 4 3 2 2 2 3 3 3 4 4 5 6 6 7 7
12 12 15 16 17 18 19 19 20 20 20 20 18 18 17 17 16 15 14 13 12 11 10 9 8 8 7 5 4 3 3 2 2 2 3 3 4 4 6 6 7 7 7
11 11 12 15 16 18 19 19 19 20 20 21 20 19 18 17 17 16 15 14 13 12 11 10 9 8 7 6 5 4 3 3 2 3 3 4 4 5 6 6 7 7 8
9 10 11 13 16 17 18 18 19 19 20 21 20 20 19 18 17 16 16 15 14 13 12 11 10 9 8 6 5 4 3 3 4 4 4 5 5 6 7 7 8 8 9
Wind_Direction
144 141 137 141 145 149 148 141 135 129 124 121 117 113 109 105 102 100 99 97 97 98 100 98 97 98 99 97 96 93 88 88 92 95 94 93 98 102 104 101 100 105 99
170 161 155 153 157 162 160 154 146 138 132 126 122 117 113 108 105 103 103 102 101 101 102 101 101 100 99 97 97 93 89 93 94 95 94 97 101 107 109 105 104 103 103
191 178 169 168 169 171 169 163 155 147 140 133 128 123 118 113 109 108 107 107 106 104 104 105 107 103 102 101 98 94 93 97 96 97 98 101 103 108 111 108 109 106 107
196 192 185 180 181 180 178 171 163 154 147 140 136 130 124 119 115 113 110 111 109 106 104 105 109 111 111 109 104 101 101 102 102 102 102 103 101 108 113 114 114 112 115
206 201 196 194 193 189 186 179 170 162 155 148 143 139 134 127 122 117 114 115 114 111 107 107 112 113 115 116 115 112 110 110 109 111 111 108 106 110 117 121 119 120 122
213 209 205 203 202 197 193 188 179 172 165 157 151 147 143 136 131 125 120 118 118 114 110 110 115 117 118 128 129 125 121 115 114 116 117 117 116 119 122 127 127 129 129
222 218 209 206 206 202 198 195 188 180 175 166 159 156 153 146 140 132 126 124 124 122 118 116 120 121 126 136 138 136 133 128 124 123 123 127 128 131 133 134 140 147 148
229 216 208 207 209 205 202 199 195 190 183 175 169 165 162 156 151 145 141 136 132 134 132 128 133 135 138 145 148 148 145 143 140 139 138 139 143 144 143 144 152 154 157
233 219 213 209 210 208 205 204 200 197 190 183 179 174 168 163 165 163 158 155 147 148 155 155 158 156 158 161 161 163 161 157 154 156 161 158 162 165 164 165 166 170 167
235 227 217 213 214 211 209 207 204 200 196 190 185 181 177 176 176 175 172 171 168 168 174 178 182 179 175 174 174 180 177 176 177 172 175 179 183 184 184 184 187 186 187
235 229 222 219 215 214 212 210 207 204 201 197 193 191 188 189 190 188 190 185 183 184 180 184 191 190 187 185 187 191 189 191 195 194 193 194 200 200 199 200 203 204 207
236 229 227 224 217 213 213 212 210 210 208 204 201 199 200 202 203 203 201 197 199 201 198 197 199 196 196 196 198 201 203 203 200 206 211 214 217 218 214 213 219 223 223
238 232 229 230 220 215 215 214 215 214 212 209 205 205 207 210 211 214 210 209 210 209 211 212 208 204 201 203 207 209 211 211 210 216 225 228 227 228 226 226 232 234 235
241 236 234 230 221 218 218 218 217 216 214 212 208 208 211 214 214 215 216 220 212 210 216 215 208 206 206 209 213 215 221 227 227 233 236 234 230 230 232 235 239 240 241
245 239 233 226 219 220 220 218 216 216 216 215 212 213 216 219 218 219 224 219 213 214 218 216 209 210 213 215 216 222 229 236 241 242 241 242 240 240 244 245 244 248 250
248 240 232 226 219 219 221 218 218 219 220 220 218 218 219 223 222 224 229 219 215 215 212 212 214 214 215 217 219 224 231 238 242 247 247 250 251 251 253 254 254 256 259
249 237 230 225 223 222 221 219 220 221 220 220 222 223 225 226 224 222 225 217 213 211 206 205 210 212 211 213 221 228 234 238 244 249 247 248 251 254 253 255 257 261 265
249 237 230 224 221 221 219 218 219 219 218 220 224 224 224 224 223 220 218 208 206 203 201 199 201 205 209 217 227 233 239 243 245 243 246 250 253 257 259 256 257 259 262
248 242 235 225 221 221 221 219 220 220 219 222 225 225 223 222 218 216 211 201 201 201 197 197 198 202 209 218 231 239 242 246 244 241 246 253 257 260 265 265 263 262 264
253 249 239 228 222 223 223 221 219 219 220 222 224 222 219 217 215 215 212 204 199 199 193 192 195 196 204 217 230 241 245 243 242 243 251 263 265 265 264 267 271 273 273
258 253 241 230 227 221 220 220 219 219 219 222 223 221 217 216 216 213 208 202 197 195 194 194 195 200 206 209 214 228 235 239 242 249 258 269 274 275 271 275 278 281 282
255 248 237 231 225 220 219 218 217 216 218 220 221 219 213 211 210 203 199 198 197 197 198 200 202 205 206 203 202 211 216 222 243 256 261 271 280 285 286 288 294 293 290
253 242 234 230 225 223 218 217 218 217 218 218 217 217 212 206 204 201 199 199 198 199 199 200 201 201 199 196 200 205 214 233 254 261 274 284 290 295 297 297 296 297 295
251 244 235 229 225 222 219 217 216 215 213 212 212 210 207 204 202 202 200 200 200 201 202 200 196 196 194 197 205 207 211 233 266 288 292 296 298 304 304 301 299 300 300
249 241 238 230 224 221 220 218 218 215 213 211 207 205 205 204 202 201 201 202 200 199 199 196 195 194 195 201 205 209 222 236 258 282 288 296 298 303 305 305 305 304 303
248 242 240 228 221 219 217 216 216 213 210 207 204 205 205 205 204 203 202 201 200 200 201 199 198 198 203 211 218 225 241 252 266 281 289 296 299 302 304 305 306 305 305
Height
5887 5887 5887 5888 5889 5889 5890 5890 5890 5891 5891 5891 5892 5892 5892 5893 5893 5893 5894 5894 5894 5895 5895 5895 5896 5896 5896 5896 5896 5895 5895 5895 5895 5895 5895 5895 5895 5895 5895 5894 5894 5894 5894
5886 5887 5887 5888 5889 5889 5890 5891 5891 5891 5892 5892 5892 5893 5893 5893 5894 5894 5894 5895 5895 5895 5896 5896 5896 5896 5897 5897 5896 5896 5896 5896 5896 5896 5896 5896 5896 5896 5896 5895 5895 5895 5895
5886 5886 5887 5888 5889 5889 5890 5891 5891 5892 5892 5892 5893 5893 5894 5894 5894 5895 5895 5895 5896 5896 5896 5896 5897 5897 5897 5897 5897 5897 5897 5897 5897 5897 5897 5897 5896 5897 5897 5897 5897 5897 5896
5885 5885 5886 5887 5888 5889 5890 5891 5892 5892 5892 5893 5893 5894 5894 5895 5895 5895 5896 5896 5896 5897 5897 5897 5897 5897 5897 5898 5898 5898 5898 5898 5898 5898 5898 5898 5898 5898 5898 5898 5898 5898 5898
5884 5884 5885 5887 5888 5889 5890 5891 5891 5892 5893 5893 5894 5894 5895 5895 5895 5896 5896 5897 5897 5897 5897 5897 5897 5898 5898 5898 5898 5898 5899 5899 5899 5899 5899 5899 5899 5899 5899 5899 5899 5899 5899
5882 5883 5884 5885 5887 5888 5889 5890 5891 5892 5892 5893 5893 5894 5895 5895 5896 5896 5896 5897 5897 5897 5897 5898 5898 5898 5898 5898 5899 5899 5899 5900 5900 5900 5900 5900 5900 5900 5900 5900 5900 5900 5900
5881 5881 5882 5884 5885 5887 5888 5889 5890 5891 5892 5892 5893 5894 5895 5895 5896 5896 5896 5897 5897 5897 5897 5898 5898 5898 5898 5898 5899 5899 5900 5900 5900 5900 5900 5900 5901 5901 5901 5901 5901 5901 5901
5879 5879 5880 5882 5883 5885 5886 5888 5889 5890 5891 5892 5893 5894 5894 5895 5895 5896 5896 5897 5897 5897 5897 5897 5898 5898 5898 5899 5899 5900 5900 5900 5901 5901 5901 5901 5901 5901 5902 5902 5902 5902 5902
5877 5878 5879 5880 5882 5883 5885 5886 5888 5889 5890 5891 5892 5893 5894 5895 5895 5896 5896 5896 5896 5897 5897 5897 5897 5898 5898 5899 5899 5900 5900 5901 5901 5901 5901 5901 5901 5902 5902 5902 5902 5903 5903
5875 5876 5877 5878 5880 5881 5883 5885 5886 5888 5889 5890 5891 5892 5893 5894 5894 5895 5896 5896 5896 5896 5896 5896 5897 5897 5898 5898 5899 5900 5900 5901 5901 5901 5901 5901 5902 5902 5902 5902 5903 5903 5903
5872 5873 5874 5876 5877 5879 5881 5883 5884 5886 5887 5889 5890 5891 5892 5893 5893 5894 5895 5895 5896 5896 5896 5896 5896 5897 5897 5898 5899 5899 5900 5900 5901 5901 5901 5901 5902 5902 5902 5902 5903 5903 5903
5870 5871 5872 5873 5875 5877 5878 5880 5882 5884 5885 5887 5888 5889 5891 5891 5892 5893 5894 5894 5895 5895 5895 5895 5896 5896 5897 5897 5898 5899 5899 5900 5900 5901 5901 5901 5901 5902 5901 5902 5902 5902 5903
5867 5868 5869 5870 5872 5874 5876 5877 5880 5882 5883 5885 5886 5888 5889 5890 5891 5892 5892 5893 5893 5894 5894 5894 5895 5895 5896 5897 5898 5898 5899 5899 5900 5900 5900 5900 5901 5901 5901 5901 5901 5901 5902
5864 5865 5865 5867 5869 5871 5873 5875 5877 5879 5880 5883 5884 5886 5887 5888 5889 5890 5891 5891 5892 5892 5893 5893 5894 5894 5895 5896 5897 5897 5898 5899 5899 5899 5900 5900 5900 5900 5900 5900 5900 5900 5901
5860 5861 5862 5863 5866 5868 5871 5873 5875 5877 5879 5880 5882 5884 5885 5887 5888 5889 5889 5890 5891 5891 5892 5892 5893 5893 5894 5895 5896 5897 5897 5898 5898 5898 5899 5899 5899 5899 5899 5899 5899 5899 5899
5857 5858 5858 5860 5862 5865 5868 5870 5872 5874 5876 5878 5880 5882 5883 5885 5886 5887 5888 5889 5889 5890 5891 5891 5892 5892 5893 5894 5895 5896 5896 5897 5897 5897 5897 5897 5898 5898 5898 5898 5898 5898 5898
5854 5855 5856 5857 5859 5862 5864 5867 5869 5871 5873 5876 5878 5879 5881 5883 5884 5885 5887 5888 5888 5889 5890 5890 5891 5892 5892 5893 5894 5895 5895 5895 5896 5896 5896 5896 5896 5896 5897 5897 5897 5897 5897
5850 5851 5853 5854 5856 5858 5861 5863 5866 5868 5870 5873 5875 5877 5879 5881 5882 5884 5885 5886 5887 5888 5889 5890 5890 5891 5892 5892 5893 5893 5894 5894 5894 5895 5895 5895 5895 5895 5895 5895 5896 5896 5895
5847 5848 5850 5851 5853 5855 5857 5860 5863 5865 5868 5870 5873 5875 5877 5879 5880 5882 5884 5885 5886 5888 5888 5889 5890 5891 5891 5892 5892 5892 5893 5893 5893 5893 5894 5894 5894 5894 5894 5894 5894 5894 5894
5844 5845 5846 5848 5850 5852 5854 5857 5860 5863 5865 5867 5870 5872 5874 5877 5878 5880 5882 5884 5885 5887 5887 5888 5889 5890 5891 5891 5891 5891 5892 5892 5892 5893 5893 5893 5893 5893 5893 5893 5893 5893 5892
5841 5842 5843 5845 5847 5849 5851 5854 5857 5860 5862 5865 5867 5870 5872 5874 5876 5878 5881 5883 5884 5885 5886 5887 5888 5889 5890 5890 5891 5891 5891 5891 5891 5892 5892 5892 5892 5892 5891 5891 5891 5891 5891
5838 5839 5840 5842 5844 5846 5849 5851 5854 5857 5859 5862 5864 5867 5869 5872 5874 5877 5879 5881 5883 5884 5885 5886 5887 5888 5889 5889 5890 5890 5891 5891 5891 5891 5891 5891 5891 5890 5890 5890 5890 5889 5889
5835 5836 5837 5839 5841 5843 5845 5848 5850 5853 5856 5859 5862 5864 5867 5870 5873 5875 5877 5879 5881 5883 5884 5885 5886 5887 5888 5889 5889 5890 5890 5891 5890 5891 5890 5890 5890 5890 5889 5889 5889 5888 5888
5832 5833 5834 5835 5838 5840 5843 5845 5847 5850 5853 5856 5859 5862 5865 5868 5871 5873 5876 5878 5880 5882 5883 5884 5885 5886 5887 5888 5888 5889 5890 5890 5890 5890 5890 5890 5889 5889 5889 5888 5888 5887 5887
5830 5830 5831 5832 5834 5837 5840 5842 5844 5847 5850 5853 5856 5860 5863 5866 5869 5871 5874 5876 5878 5880 5882 5883 5884 5885 5886 5887 5888 5889 5889 5889 5889 5889 5889 5889 5889 5889 5888 5887 5886 5886 5885
5828 5828 5829 5830 5832 5834 5837 5839 5841 5844 5848 5851 5854 5858 5861 5864 5867 5869 5872 5874 5876 5878 5880 5882 5883 5885 5886 5887 5887 5888 5888 5888 5889 5889 5889 5888 5888 5888 5887 5886 5885 5885 5884